Weather History for PAOM - January, 2013

Change the Weather History Date:

Wednesday, January 2, 2013

  Actual Average Record
Temperature  
Mean Temperature 22 °F -  
Max Temperature 32 °F 14 °F 37 °F (1942)
Min Temperature 11 °F -2 °F -39 °F (1949)
Degree Days  
Heating Degree Days 43 59  
Month to date heating degree days 80 118  
Since 1 July heating degree days 6208 5936  
Cooling Degree Days 0    
Month to date cooling degree days 0  
Year to date cooling degree days 0  
Moisture  
Dew Point 21 °F    
Average Humidity 0    
Maximum Humidity 0    
Minimum Humidity 0    
Precipitation  
Precipitation 0.02 in 0.03 in 0.44 in (1950)
Month to date precipitation 0.02 0.06  
Year to date precipitation 0.02 0.06  
Snow  
Snow 0.20 in 0.50 in 7.00 in (1950)
Month to date snowfall 0.2 0.9  
Since 1 July snowfall 17.5 32.7  
Snow Depth 15.00 in    
Sea Level Pressure  
Sea Level Pressure 29.20 in    
Wind  
Wind Speed 6 mph (ENE)    
Max Wind Speed 14 mph    
Max Gust Speed 17 mph    
Visibility 8 miles    
Events Snow    
T = Trace of Precipitation, MM = Missing Value Source: NWS Daily Summary

Daily Weather History Graph

Daily Weather History Graph

Search for Another Location

Airport or City:

Trip Planner

Search our weather history database for the weather conditions in past years. The results will help you decide how hot, cold, wet, or windy it might be!

Date:

Astronomy

Jan. 02, 2013 Rise Set
Actual Time 11:57 AM AKST 4:15 PM AKST
Civil Twilight 10:39 AM AKST 5:33 PM AKST
Nautical Twilight 9:30 AM AKST 6:42 PM AKST
Astronomical Twilight 8:30 AM AKST 7:42 PM AKST
Moon No Moon Rise 12:19 PM AKST (1/2)
Length of Visible Light 6h 53m
Length of Day
4h 17m
Waning Gibbous, 74% of the Moon is Illuminated
Jan 2
Waning Gibbous
Jan 4
Last Quarter
Jan 11
New
Jan 18
First Quarter
Jan 26
Full

Hourly Weather History & Observations

Time (AKST) Temp. Windchill Dew Point Humidity Pressure Visibility Wind Dir Wind Speed Gust Speed Precip Events Conditions
12:53 AM 30.0 °F 25.2 °F 18.0 °F 61% 29.08 in 10.0 mi NNE 4.6 mph - N/A   Mostly Cloudy
1:53 AM 30.0 °F 21.1 °F 19.9 °F 66% 29.08 in 10.0 mi North 10.4 mph - N/A   Overcast
2:53 AM 30.9 °F 22.2 °F 19.9 °F 64% 29.08 in 10.0 mi North 10.4 mph - N/A   Overcast
3:53 AM 28.9 °F 25.2 °F 18.0 °F 64% 29.09 in 10.0 mi SSE 3.5 mph - N/A   Overcast
4:53 AM 27.0 °F - 17.1 °F 66% 29.08 in 10.0 mi Calm Calm - N/A   Overcast
5:53 AM 25.0 °F 18.1 °F 17.1 °F 72% 29.09 in 10.0 mi North 5.8 mph - N/A   Mostly Cloudy
6:53 AM 28.0 °F 20.0 °F 19.0 °F 69% 29.09 in 10.0 mi North 8.1 mph - N/A   Mostly Cloudy
7:53 AM 26.1 °F - 18.0 °F 71% 29.10 in 10.0 mi Calm Calm - N/A   Overcast
8:53 AM 21.9 °F - 18.0 °F 85% 29.11 in 10.0 mi Calm Calm - N/A   Mostly Cloudy
9:53 AM 16.0 °F - 14.0 °F 92% 29.12 in 10.0 mi Calm Calm - N/A   Scattered Clouds
10:53 AM 14.0 °F - 12.0 °F 92% 29.14 in 10.0 mi Calm Calm - N/A   Scattered Clouds
11:53 AM 10.9 °F - 9.0 °F 92% 29.16 in 10.0 mi Calm Calm - N/A   Scattered Clouds
12:53 PM 18.0 °F 11.1 °F 14.0 °F 84% 29.19 in 10.0 mi ESE 4.6 mph - N/A   Mostly Cloudy
1:08 PM 26.6 °F 16.8 °F 21.2 °F 80% 29.18 in 10.0 mi East 10.4 mph - N/A   Mostly Cloudy
1:53 PM 26.1 °F 18.4 °F 19.0 °F 75% 29.19 in 10.0 mi East 6.9 mph - N/A   Mostly Cloudy
2:33 PM 24.8 °F 16.1 °F 19.4 °F 80% 29.20 in 10.0 mi East 8.1 mph - N/A   Mostly Cloudy
2:53 PM 26.1 °F 18.4 °F 19.9 °F 78% 29.21 in 10.0 mi East 6.9 mph - N/A   Overcast
3:53 PM 26.1 °F 16.8 °F 21.9 °F 84% 29.21 in 10.0 mi East 9.2 mph - N/A   Overcast
4:51 PM 26.6 °F 19.1 °F 23.0 °F 86% 29.22 in 10.0 mi East 6.9 mph - N/A   Overcast
4:53 PM 26.1 °F 17.6 °F 23.0 °F 88% 29.23 in 10.0 mi East 8.1 mph - N/A   Overcast
5:51 PM 26.6 °F 16.2 °F 24.8 °F 93% 29.24 in 6.0 mi East 11.5 mph - N/A   Overcast
5:53 PM 27.0 °F 16.7 °F 24.1 °F 89% 29.24 in 6.0 mi East 11.5 mph - N/A   Overcast
6:53 PM 26.1 °F 14.5 °F 25.0 °F 96% 29.25 in 10.0 mi ENE 13.8 mph - 0.00 in   Overcast
7:33 PM 26.6 °F 16.8 °F 24.8 °F 93% 29.26 in 5.0 mi ENE 10.4 mph - 0.00 in Snow Light Snow
7:42 PM 26.6 °F 16.8 °F 24.8 °F 93% - 5.0 mi ENE 10.4 mph - 0.00 in   Light Freezing Drizzle
7:51 PM 26.6 °F 17.5 °F 24.8 °F 93% 29.26 in 4.0 mi ENE 9.2 mph - 0.00 in   Overcast
7:53 PM 26.1 °F 17.6 °F 25.0 °F 96% 29.27 in 3.0 mi ENE 8.1 mph - 0.00 in   Overcast
8:53 PM 27.0 °F 16.7 °F 25.0 °F 92% 29.28 in 9.0 mi East 11.5 mph - 0.01 in   Overcast
9:13 PM 26.6 °F 15.2 °F 24.8 °F 93% 29.28 in 2.0 mi East 13.8 mph - 0.00 in Snow Light Snow
9:51 PM 24.8 °F 14.0 °F 24.8 °F 100% 29.29 in 3.0 mi East 11.5 mph - 0.01 in Snow Light Snow
9:53 PM 25.0 °F 13.6 °F 24.1 °F 96% 29.29 in 3.0 mi East 12.7 mph - 0.01 in Snow Light Snow
10:17 PM 26.6 °F 17.5 °F 24.8 °F 93% 29.29 in 2.0 mi East 9.2 mph - 0.00 in Snow Light Snow
10:42 PM 24.8 °F 16.1 °F 24.8 °F 100% 29.30 in 6.0 mi East 8.1 mph - 0.00 in   Overcast
10:53 PM 25.0 °F 17.1 °F 25.0 °F 100% 29.30 in 5.0 mi East 6.9 mph - 0.00 in   Overcast
11:28 PM 26.6 °F 18.2 °F 24.8 °F 93% 29.31 in 2.0 mi East 8.1 mph - 0.00 in Snow Light Snow
11:51 PM 26.6 °F 18.2 °F 24.8 °F 93% 29.31 in 3.0 mi East 8.1 mph - 0.00 in Snow Light Snow
11:53 PM 26.1 °F 17.6 °F 25.0 °F 96% 29.32 in 3.0 mi East 8.1 mph - 0.00 in Snow Light Snow